Time,TemperatureF,DewpointF,PressureIn,WindDirection,WindDirectionDegrees,WindSpeedMPH,WindSpeedGustMPH,Humidity,HourlyPrecipIn,Conditions,Clouds,dailyrainin,SolarRadiationWatts/m^2,SoftwareType,DateUTC
2013-03-01 00:01:00,36.0,28.0,-100.00,South,171,9.0,15.0,73,0.00,,,0.00,0.000000,,2013-03-01 07:01:00,
2013-03-01 00:11:00,36.0,28.0,-100.00,South,171,9.0,15.0,73,0.00,,,0.00,0.000000,,2013-03-01 07:11:00,
2013-03-01 00:32:00,37.0,29.0,-100.00,SSE,157,10.0,13.0,73,0.00,,,0.00,0.000000,,2013-03-01 07:32:00,
2013-03-01 00:42:00,37.0,29.0,-100.00,SSE,157,10.0,13.0,73,0.00,,,0.00,0.000000,,2013-03-01 07:42:00,
2013-03-01 00:52:00,37.0,29.0,-100.00,SSE,157,10.0,13.0,73,0.00,,,0.00,0.000000,,2013-03-01 07:52:00,
2013-03-01 01:01:00,37.0,29.0,-100.00,SSE,157,10.0,13.0,73,0.00,,,0.00,0.000000,,2013-03-01 08:01:00,
2013-03-01 01:11:00,37.0,29.0,-100.00,SSE,157,10.0,13.0,73,0.00,,,0.00,0.000000,,2013-03-01 08:11:00,
2013-03-01 01:32:00,37.0,29.0,-100.00,South,177,9.0,14.0,72,0.00,,,0.00,0.000000,,2013-03-01 08:32:00,
2013-03-01 01:43:00,37.0,29.0,-100.00,South,177,9.0,14.0,72,0.00,,,0.00,0.000000,,2013-03-01 08:43:00,
2013-03-01 01:53:00,37.0,29.0,-100.00,South,177,9.0,14.0,72,0.00,,,0.00,0.000000,,2013-03-01 08:53:00,
2013-03-01 02:02:00,37.0,29.0,-100.00,South,177,9.0,14.0,72,0.00,,,0.00,0.000000,,2013-03-01 09:02:00,
2013-03-01 02:11:00,37.0,29.0,-100.00,South,177,9.0,14.0,72,0.00,,,0.00,0.000000,,2013-03-01 09:11:00,
2013-03-01 02:32:00,37.0,29.0,-100.00,South,183,8.0,14.0,74,0.00,,,0.00,0.000000,,2013-03-01 09:32:00,
2013-03-01 02:42:00,37.0,29.0,-100.00,South,183,8.0,14.0,74,0.00,,,0.00,0.000000,,2013-03-01 09:42:00,
2013-03-01 02:52:00,37.0,29.0,-100.00,South,183,8.0,14.0,74,0.00,,,0.00,0.000000,,2013-03-01 09:52:00,
2013-03-01 03:01:00,37.0,29.0,-100.00,South,183,8.0,14.0,74,0.00,,,0.00,0.000000,,2013-03-01 10:01:00,
2013-03-01 03:11:00,37.0,29.0,-100.00,South,183,8.0,14.0,74,0.00,,,0.00,0.000000,,2013-03-01 10:11:00,
2013-03-01 03:42:00,38.0,29.0,-100.00,SE,145,7.0,12.0,69,0.00,,,0.00,0.000000,,2013-03-01 10:42:00,
2013-03-01 03:52:00,38.0,29.0,-100.00,SE,145,7.0,12.0,69,0.00,,,0.00,0.000000,,2013-03-01 10:52:00,
2013-03-01 04:01:00,38.0,29.0,-100.00,SE,145,7.0,12.0,69,0.00,,,0.00,0.000000,,2013-03-01 11:01:00,
2013-03-01 04:11:00,38.0,29.0,-100.00,SE,145,7.0,12.0,69,0.00,,,0.00,0.000000,,2013-03-01 11:11:00,
2013-03-01 04:32:00,39.0,29.0,-100.00,SSE,156,10.0,13.0,68,0.00,,,0.00,0.000000,,2013-03-01 11:32:00,
2013-03-01 04:42:00,39.0,29.0,-100.00,SSE,156,10.0,13.0,68,0.00,,,0.00,0.000000,,2013-03-01 11:42:00,
2013-03-01 04:52:00,39.0,29.0,-100.00,SSE,156,10.0,13.0,68,0.00,,,0.00,0.000000,,2013-03-01 11:52:00,
2013-03-01 05:01:00,39.0,29.0,-100.00,SSE,156,10.0,13.0,68,0.00,,,0.00,0.000000,,2013-03-01 12:01:00,
2013-03-01 05:11:00,39.0,29.0,-100.00,SSE,156,10.0,13.0,68,0.00,,,0.00,0.000000,,2013-03-01 12:11:00,
2013-03-01 05:32:00,39.0,30.0,-100.00,SE,138,8.0,14.0,69,0.00,,,0.00,0.000000,,2013-03-01 12:32:00,
2013-03-01 05:42:00,39.0,30.0,-100.00,SE,138,8.0,14.0,69,0.00,,,0.00,0.000000,,2013-03-01 12:42:00,
2013-03-01 05:52:00,39.0,30.0,-100.00,SE,138,8.0,14.0,69,0.00,,,0.00,0.000000,,2013-03-01 12:52:00,
2013-03-01 06:01:00,39.0,30.0,-100.00,SE,138,8.0,14.0,69,0.00,,,0.00,0.000000,,2013-03-01 13:01:00,
2013-03-01 06:11:00,39.0,30.0,-100.00,SE,138,8.0,14.0,69,0.00,,,0.00,0.000000,,2013-03-01 13:11:00,
2013-03-01 06:32:00,39.0,30.0,-100.00,SE,145,8.0,13.0,71,0.00,,,0.00,0.000000,,2013-03-01 13:32:00,
2013-03-01 06:42:00,39.0,30.0,-100.00,SE,145,8.0,13.0,71,0.00,,,0.00,0.000000,,2013-03-01 13:42:00,
2013-03-01 06:52:00,39.0,30.0,-100.00,SE,145,8.0,13.0,71,0.00,,,0.00,0.000000,,2013-03-01 13:52:00,
2013-03-01 07:01:00,39.0,30.0,-100.00,SE,145,8.0,13.0,71,0.00,,,0.00,0.000000,,2013-03-01 14:01:00,
2013-03-01 07:11:00,39.0,30.0,-100.00,SE,145,8.0,13.0,71,0.00,,,0.00,0.000000,,2013-03-01 14:11:00,
2013-03-01 07:32:00,39.0,30.0,-100.00,SE,128,8.0,16.0,71,0.00,,,0.00,0.000000,,2013-03-01 14:32:00,
2013-03-01 07:42:00,39.0,30.0,-100.00,SE,128,8.0,16.0,71,0.00,,,0.00,0.000000,,2013-03-01 14:42:00,
2013-03-01 07:52:00,39.0,30.0,-100.00,SE,128,8.0,16.0,71,0.00,,,0.00,0.000000,,2013-03-01 14:52:00,
2013-03-01 08:01:00,39.0,30.0,-100.00,SE,128,8.0,16.0,71,0.00,,,0.00,0.000000,,2013-03-01 15:01:00,
2013-03-01 08:11:00,39.0,30.0,-100.00,SE,128,8.0,16.0,71,0.00,,,0.00,0.000000,,2013-03-01 15:11:00,
2013-03-01 08:32:00,40.0,31.0,-100.00,SE,136,9.0,15.0,70,0.00,,,0.00,0.000000,,2013-03-01 15:32:00,
2013-03-01 08:42:00,40.0,31.0,-100.00,SE,136,9.0,15.0,70,0.00,,,0.00,0.000000,,2013-03-01 15:42:00,
2013-03-01 08:52:00,40.0,31.0,-100.00,SE,136,9.0,15.0,70,0.00,,,0.00,0.000000,,2013-03-01 15:52:00,
2013-03-01 09:01:00,40.0,31.0,-100.00,SE,136,9.0,15.0,70,0.00,,,0.00,0.000000,,2013-03-01 16:01:00,
2013-03-01 09:11:00,40.0,31.0,-100.00,SE,136,9.0,15.0,70,0.00,,,0.00,0.000000,,2013-03-01 16:11:00,
2013-03-01 09:32:00,41.0,31.0,-100.00,SSE,150,10.0,15.0,66,0.00,,,0.00,0.000000,,2013-03-01 16:32:00,
2013-03-01 09:42:00,41.0,31.0,-100.00,SSE,150,10.0,15.0,66,0.00,,,0.00,0.000000,,2013-03-01 16:42:00,
2013-03-01 09:52:00,41.0,31.0,-100.00,SSE,150,10.0,15.0,66,0.00,,,0.00,0.000000,,2013-03-01 16:52:00,
2013-03-01 10:01:00,41.0,31.0,-100.00,SSE,150,10.0,15.0,66,0.00,,,0.00,0.000000,,2013-03-01 17:01:00,
2013-03-01 10:11:00,41.0,31.0,-100.00,SSE,150,10.0,15.0,66,0.00,,,0.00,0.000000,,2013-03-01 17:11:00,
2013-03-01 10:42:00,43.0,31.0,-100.00,SSE,162,10.0,15.0,63,0.00,,,0.00,0.000000,,2013-03-01 17:42:00,
2013-03-01 10:52:00,43.0,31.0,-100.00,SSE,162,10.0,15.0,63,0.00,,,0.00,0.000000,,2013-03-01 17:52:00,
2013-03-01 11:01:00,43.0,31.0,-100.00,SSE,162,10.0,15.0,63,0.00,,,0.00,0.000000,,2013-03-01 18:01:00,
2013-03-01 11:11:00,43.0,31.0,-100.00,SSE,162,10.0,15.0,63,0.00,,,0.00,0.000000,,2013-03-01 18:11:00,
2013-03-01 11:32:00,42.0,30.0,-100.00,South,189,8.0,14.0,62,0.00,,,0.00,0.000000,,2013-03-01 18:32:00,
2013-03-01 11:42:00,42.0,30.0,-100.00,South,189,8.0,14.0,62,0.00,,,0.00,0.000000,,2013-03-01 18:42:00,
2013-03-01 11:52:00,42.0,30.0,-100.00,South,189,8.0,14.0,62,0.00,,,0.00,0.000000,,2013-03-01 18:52:00,
2013-03-01 12:01:00,42.0,30.0,-100.00,South,189,8.0,14.0,62,0.00,,,0.00,0.000000,,2013-03-01 19:01:00,
2013-03-01 12:11:00,42.0,30.0,-100.00,South,189,8.0,14.0,62,0.00,,,0.00,0.000000,,2013-03-01 19:11:00,
2013-03-01 12:42:00,42.0,30.0,-100.00,South,188,7.0,12.0,62,0.00,,,0.00,0.000000,,2013-03-01 19:42:00,
2013-03-01 12:52:00,42.0,30.0,-100.00,South,188,7.0,12.0,62,0.00,,,0.00,0.000000,,2013-03-01 19:52:00,
2013-03-01 13:01:00,42.0,30.0,-100.00,South,188,7.0,12.0,62,0.00,,,0.00,0.000000,,2013-03-01 20:01:00,
2013-03-01 13:11:00,42.0,30.0,-100.00,South,188,7.0,12.0,62,0.00,,,0.00,0.000000,,2013-03-01 20:11:00,
2013-03-01 13:32:00,43.0,32.0,-100.00,South,174,7.0,12.0,64,0.00,,,0.00,0.000000,,2013-03-01 20:32:00,
2013-03-01 13:42:00,43.0,32.0,-100.00,South,174,7.0,12.0,64,0.00,,,0.00,0.000000,,2013-03-01 20:42:00,
2013-03-01 13:52:00,43.0,32.0,-100.00,South,174,7.0,12.0,64,0.00,,,0.00,0.000000,,2013-03-01 20:52:00,
2013-03-01 14:01:00,43.0,32.0,-100.00,South,174,7.0,12.0,64,0.00,,,0.00,0.000000,,2013-03-01 21:01:00,
2013-03-01 14:11:00,43.0,32.0,-100.00,South,174,7.0,12.0,64,0.00,,,0.00,0.000000,,2013-03-01 21:11:00,
2013-03-01 14:32:00,44.0,32.0,-100.00,South,174,9.0,17.0,63,0.00,,,0.00,0.000000,,2013-03-01 21:32:00,
2013-03-01 14:42:00,44.0,32.0,-100.00,South,174,9.0,17.0,63,0.00,,,0.00,0.000000,,2013-03-01 21:42:00,
2013-03-01 14:52:00,44.0,32.0,-100.00,South,174,9.0,17.0,63,0.00,,,0.00,0.000000,,2013-03-01 21:52:00,
2013-03-01 15:01:00,44.0,32.0,-100.00,South,174,9.0,17.0,63,0.00,,,0.00,0.000000,,2013-03-01 22:01:00,
2013-03-01 15:11:00,44.0,32.0,-100.00,South,174,9.0,17.0,63,0.00,,,0.00,0.000000,,2013-03-01 22:11:00,
2013-03-01 15:32:00,45.0,30.0,-100.00,SSW,198,9.0,13.0,55,0.00,,,0.00,0.000000,,2013-03-01 22:32:00,
2013-03-01 15:42:00,45.0,30.0,-100.00,SSW,198,9.0,13.0,55,0.00,,,0.00,0.000000,,2013-03-01 22:42:00,
2013-03-01 15:52:00,45.0,30.0,-100.00,SSW,198,9.0,13.0,55,0.00,,,0.00,0.000000,,2013-03-01 22:52:00,
2013-03-01 16:01:00,45.0,30.0,-100.00,SSW,198,9.0,13.0,55,0.00,,,0.00,0.000000,,2013-03-01 23:01:00,
2013-03-01 16:11:00,45.0,30.0,-100.00,SSW,198,9.0,13.0,55,0.00,,,0.00,0.000000,,2013-03-01 23:11:00,
2013-03-01 16:32:00,43.0,30.0,-100.00,South,172,8.0,14.0,59,0.00,,,0.00,0.000000,,2013-03-01 23:32:00,
2013-03-01 16:42:00,43.0,30.0,-100.00,South,172,8.0,14.0,59,0.00,,,0.00,0.000000,,2013-03-01 23:42:00,
2013-03-01 16:52:00,43.0,30.0,-100.00,South,172,8.0,14.0,59,0.00,,,0.00,0.000000,,2013-03-01 23:52:00,
2013-03-01 17:01:00,43.0,30.0,-100.00,South,172,8.0,14.0,59,0.00,,,0.00,0.000000,,2013-03-02 00:01:00,
2013-03-01 17:11:00,43.0,30.0,-100.00,South,172,8.0,14.0,59,0.00,,,0.00,0.000000,,2013-03-02 00:11:00,
2013-03-01 17:42:00,44.0,30.0,-100.00,SSE,166,11.0,15.0,57,0.00,,,0.00,0.000000,,2013-03-02 00:42:00,
2013-03-01 17:52:00,44.0,30.0,-100.00,SSE,166,11.0,15.0,57,0.00,,,0.00,0.000000,,2013-03-02 00:52:00,
2013-03-01 18:01:00,44.0,30.0,-100.00,SSE,166,11.0,15.0,57,0.00,,,0.00,0.000000,,2013-03-02 01:01:00,
2013-03-01 18:11:00,44.0,30.0,-100.00,SSE,166,11.0,15.0,57,0.00,,,0.00,0.000000,,2013-03-02 01:11:00,
2013-03-01 18:42:00,42.0,29.0,-100.00,SE,132,7.0,14.0,60,0.00,,,0.00,0.000000,,2013-03-02 01:42:00,
2013-03-01 18:52:00,42.0,29.0,-100.00,SE,132,7.0,14.0,60,0.00,,,0.00,0.000000,,2013-03-02 01:52:00,
2013-03-01 19:01:00,42.0,29.0,-100.00,SE,132,7.0,14.0,60,0.00,,,0.00,0.000000,,2013-03-02 02:01:00,
2013-03-01 19:11:00,42.0,29.0,-100.00,SE,132,7.0,14.0,60,0.00,,,0.00,0.000000,,2013-03-02 02:11:00,
2013-03-01 19:42:00,41.0,29.0,-100.00,South,175,9.0,14.0,62,0.00,,,0.00,0.000000,,2013-03-02 02:42:00,
2013-03-01 19:52:00,41.0,29.0,-100.00,South,175,9.0,14.0,62,0.00,,,0.00,0.000000,,2013-03-02 02:52:00,
2013-03-01 20:01:00,41.0,29.0,-100.00,South,175,9.0,14.0,62,0.00,,,0.00,0.000000,,2013-03-02 03:01:00,
2013-03-01 20:11:00,41.0,29.0,-100.00,South,175,9.0,14.0,62,0.00,,,0.00,0.000000,,2013-03-02 03:11:00,
2013-03-01 20:32:00,41.0,29.0,-100.00,SSE,156,8.0,14.0,63,0.00,,,0.00,0.000000,,2013-03-02 03:32:00,
2013-03-01 20:42:00,41.0,29.0,-100.00,SSE,156,8.0,14.0,63,0.00,,,0.00,0.000000,,2013-03-02 03:42:00,
2013-03-01 20:52:00,41.0,29.0,-100.00,SSE,156,8.0,14.0,63,0.00,,,0.00,0.000000,,2013-03-02 03:52:00,
2013-03-01 21:01:00,41.0,29.0,-100.00,SSE,156,8.0,14.0,63,0.00,,,0.00,0.000000,,2013-03-02 04:01:00,
2013-03-01 21:11:00,41.0,29.0,-100.00,SSE,156,8.0,14.0,63,0.00,,,0.00,0.000000,,2013-03-02 04:11:00,
2013-03-01 21:32:00,39.0,28.0,-100.00,SE,125,10.0,15.0,65,0.00,,,0.00,0.000000,,2013-03-02 04:32:00,
2013-03-01 21:42:00,39.0,28.0,-100.00,SE,125,10.0,15.0,65,0.00,,,0.00,0.000000,,2013-03-02 04:42:00,
2013-03-01 21:52:00,39.0,28.0,-100.00,SE,125,10.0,15.0,65,0.00,,,0.00,0.000000,,2013-03-02 04:52:00,
2013-03-01 22:01:00,39.0,28.0,-100.00,SE,125,10.0,15.0,65,0.00,,,0.00,0.000000,,2013-03-02 05:01:00,
2013-03-01 22:12:00,39.0,28.0,-100.00,SE,125,10.0,15.0,65,0.00,,,0.00,0.000000,,2013-03-02 05:12:00,
2013-03-01 22:32:00,39.0,29.0,-100.00,SE,127,10.0,15.0,68,0.00,,,0.00,0.000000,,2013-03-02 05:32:00,
2013-03-01 22:42:00,39.0,29.0,-100.00,SE,127,10.0,15.0,68,0.00,,,0.00,0.000000,,2013-03-02 05:42:00,
2013-03-01 22:52:00,39.0,29.0,-100.00,SE,127,10.0,15.0,68,0.00,,,0.00,0.000000,,2013-03-02 05:52:00,
2013-03-01 23:01:00,39.0,29.0,-100.00,SE,127,10.0,15.0,68,0.00,,,0.00,0.000000,,2013-03-02 06:01:00,
2013-03-01 23:11:00,39.0,29.0,-100.00,SE,127,10.0,15.0,68,0.00,,,0.00,0.000000,,2013-03-02 06:11:00,
2013-03-01 23:32:00,38.0,27.0,-100.00,SSE,150,7.0,14.0,63,0.00,,,0.00,0.000000,,2013-03-02 06:32:00,
2013-03-01 23:42:00,38.0,27.0,-100.00,SSE,150,7.0,14.0,63,0.00,,,0.00,0.000000,,2013-03-02 06:42:00,
2013-03-01 23:52:00,38.0,27.0,-100.00,SSE,150,7.0,14.0,63,0.00,,,0.00,0.000000,,2013-03-02 06:52:00,